Tracking 31027 objects as of 19-Jul-2025
HD Live streaming from Space Station
objects crossing your sky now

FENGYUN 1C DEB

Track FENGYUN 1C DEB now!
10-day predictions


NORAD ID: 30320
Int'l Code: 1999-025AAH
Perigee: 844.0 km
Apogee: 968.6 km
Inclination: 99.2 °
Period: 103.0 minutes
Semi major axis: 7277 km
RCS: 0.0266 m2 (small)
Launch date: May 10, 1999
Source: People's Republic of China (PRC)
Launch site: Taiyaun Space Center, China (TSC)

Note: This is SATELLITE DEBRIS
Your satellite tracking list
STARLINK-5403
Track 1 satellite(s)




NASA's NSSDC Master Catalog

Two Line Element Set (TLE):
1 30320U 99025AAH 25199.64872446 -.00000050  00000-0 -25126-5 0  9998
2 30320  99.2083 258.5235 0085593 338.1797 173.8005 13.98459410943609
Source of the keplerian elements: AFSPC